N1IER Weather Reports


time (UTC)temp
C
wind
direction
speed
KPH
gust
KPH
rain 1hr
cm
rain 24hr
cm
rain mn
cm
humidity
%
barometer
mb
20260507191506 18 227 3.2 16.1 0.00 1.04 0.58 29 1005.4
20260507190006 17 63 3.2 20.9 0.00 1.04 0.58 32 1005.5
20260507184509 18 307 1.6 12.9 0.00 1.04 0.58 35 1005.8
20260507183008 17 53 1.6 11.3 0.00 1.04 0.58 38 1005.8
20260507181509 17 327 1.6 17.7 0.00 1.04 0.58 37 1006.2
20260507180008 18 38 1.6 11.3 0.00 1.04 0.58 33 1006.2
20260507174509 17 23 0.0 12.9 0.00 1.04 0.58 42 1006.4
20260507173025 17 19 4.8 16.1 0.00 1.04 0.58 42 1006.5
20260507171513 17 14 3.2 14.5 0.00 1.04 0.58 47 1006.5
20260507170013 17 276 1.6 11.3 0.00 1.04 0.58 53 1006.8
20260507164516 17 28 3.2 9.7 0.00 1.04 0.58 54 1006.8
20260507163010 16 179 1.6 9.7 0.00 1.04 0.58 63 1007.0
20260507161519 16 17 1.6 4.8 0.00 1.04 0.58 64 1007.2
20260507160010 16 360 3.2 9.7 0.00 1.04 0.58 60 1007.3
20260507154518 16 286 1.6 8.0 0.00 1.04 0.58 66 1007.5
20260507153013 16 313 3.2 9.7 0.00 1.04 0.58 63 1007.6
20260507151512 15 244 0.0 12.9 0.00 1.04 0.58 63 1007.8
20260507150012 15 5 3.2 12.9 0.00 1.04 0.58 61 1007.9
20260507144515 15 56 0.0 8.0 0.00 1.04 0.58 71 1007.8
20260507143013 13 9 3.2 16.1 0.00 1.04 0.58 74 1007.7
20260507141513 13 36 3.2 12.9 0.00 1.04 0.58 81 1007.9
20260507140014 12 352 1.6 6.4 0.00 1.04 0.58 85 1008.0
20260507134513 11 22 3.2 11.3 0.00 1.04 0.58 90 1008.1
20260507133012 11 29 0.0 12.9 0.00 1.04 0.58 91 1008.0
20260507131516 11 53 1.6 9.7 0.00 1.04 0.58 92 1008.2
20260507130015 10 352 0.0 3.2 0.00 1.04 0.58 93 1008.1
20260507124517 10 327 0.0 3.2 0.00 1.04 0.58 93 1008.0
20260507123014 10 25 0.0 3.2 0.03 1.04 0.58 93 1008.0
20260507121519 10 336 0.0 1.6 0.05 1.04 0.58 93 1008.7
20260507120016 10 13 0.0 1.6 0.10 1.04 0.58 93 1008.2
20260507114516 9 15 0.0 3.2 0.10 1.04 0.58 93 1008.0
20260507113017 9 22 0.0 4.8 0.10 1.02 0.56 93 1008.0
20260507111528 9 275 0.0 6.4 0.08 0.99 0.53 93 1008.1
20260507110020 9 19 0.0 3.2 0.05 0.94 0.48 93 1007.8
20260507104520 9 11 0.0 8.0 0.08 0.94 0.48 93 1007.8
20260507103016 9 17 1.6 6.4 0.05 0.91 0.46 92 1007.2
20260507101522 9 26 1.6 4.8 0.05 0.91 0.46 92 1007.6
20260507100019 9 5 1.6 6.4 0.08 0.89 0.43 92 1007.7
20260507094522 9 347 1.6 8.0 0.05 0.86 0.41 92 1007.4
20260507093022 10 14 4.8 12.9 0.08 0.86 0.41 93 1007.3
20260507091528 10 13 1.6 6.4 0.10 0.86 0.41 93 1007.0
20260507090017 10 221 0.0 1.6 0.13 0.81 0.36 93 1007.4
20260507084523 10 311 0.0 1.6 0.30 0.81 0.36 93 1007.0
20260507083020 10 352 0.0 4.8 0.33 0.79 0.33 93 1006.5
20260507081515 11 18 1.6 8.0 0.30 0.76 0.30 93 1006.9
20260507080011 11 29 3.2 17.7 0.23 0.69 0.23 93 1007.2
20260507074517 12 271 0.0 4.8 0.05 0.51 0.05 93 1007.0
20260507073018 12 170 0.0 0.0 0.00 0.46 0.00 93 1005.8
20260507071522 12 169 0.0 0.0 0.00 0.46 0.00 93 1005.7
20260507070017 12 170 0.0 1.6 0.00 0.46 0.00 93 1005.5
20260507064514 12 272 0.0 1.6 0.00 0.46 0.00 93 1005.8
20260507063016 12 286 0.0 1.6 0.00 0.46 0.00 93 1006.1
20260507061522 12 258 0.0 3.2 0.00 0.46 0.00 93 1005.8
20260507060033 12 215 0.0 3.2 0.00 0.46 0.00 93 1006.2
20260507054511 12 253 0.0 3.2 0.00 0.46 0.00 93 1006.5
20260507053016 12 259 0.0 4.8 0.00 0.46 0.00 93 1006.6
20260507051520 12 243 0.0 6.4 0.00 0.46 0.00 93 1006.7
20260507050026 12 216 0.0 3.2 0.00 0.46 0.00 93 1006.9
20260507044527 12 230 0.0 6.4 0.00 0.46 0.00 93 1007.0
20260507043014 12 211 1.6 6.4 0.00 0.46 0.00 93 1006.7
20260507041517 12 205 0.0 4.8 0.00 0.46 0.00 93 1006.6
20260507040024 12 213 0.0 4.8 0.00 0.46 0.00 93 1006.6
20260507034533 12 187 0.0 4.8 0.00 0.46 0.46 93 1006.8
20260507033009 12 205 1.6 4.8 0.00 0.46 0.46 93 1007.1
20260507031516 12 168 0.0 4.8 0.00 0.46 0.46 93 1006.9
20260507030018 12 215 0.0 4.8 0.00 0.46 0.46 93 1006.8
20260507024525 13 161 1.6 9.7 0.00 0.46 0.46 93 1006.7
20260507023027 13 180 0.0 8.0 0.00 0.46 0.46 93 1006.8
20260507021518 13 206 0.0 8.0 0.00 0.46 0.46 93 1006.9
20260507020017 12 250 1.6 12.9 0.00 0.46 0.46 93 1007.2
20260507014522 12 192 0.0 9.7 0.00 0.46 0.46 93 1007.4
20260507013004 12 218 1.6 12.9 0.00 0.46 0.46 92 1007.6
20260507011510 12 219 1.6 9.7 0.00 0.46 0.46 93 1007.7
20260507010012 13 204 1.6 16.1 0.00 0.46 0.46 93 1007.9
20260507004528 13 189 1.6 9.7 0.00 0.46 0.46 92 1007.7
20260507003027 13 294 1.6 12.9 0.03 0.46 0.46 92 1007.8
20260507001508 13 199 1.6 16.1 0.03 0.46 0.46 92 1007.7
20260507000012 13 184 4.8 14.5 0.05 0.46 0.46 92 1007.7
20260506234523 13 173 6.4 20.9 0.10 0.46 0.46 92 1007.7
20260506233022 13 136 0.0 9.7 0.15 0.43 0.43 92 1007.7
20260506231527 13 286 1.6 11.3 0.25 0.43 0.43 92 1007.7
20260506224526 13 196 1.6 12.9 0.25 0.36 0.36 92 1007.5
20260506223018 13 175 3.2 16.1 0.20 0.28 0.28 91 1007.4
20260506221522 13 210 3.2 14.5 0.10 0.18 0.18 91 1007.7
20260506220026 13 126 1.6 27.4 0.05 0.10 0.10 91 1008.2
20260506214523 13 192 3.2 17.7 0.05 0.10 0.10 90 1008.1
20260506213014 13 239 8.0 19.3 0.03 0.08 0.08 90 1008.2
20260506211527 14 188 4.8 24.1 0.03 0.08 0.08 89 1008.3
20260506210024 15 207 3.2 12.9 0.03 0.05 0.05 87 1008.5
20260506204526 15 254 3.2 25.7 0.05 0.05 0.05 86 1008.6
20260506203012 15 175 3.2 24.1 0.05 0.05 0.05 86 1008.7
20260506201518 15 180 6.4 14.5 0.05 0.05 0.05 88 1008.7
20260506200021 15 173 6.4 19.3 0.03 0.03 0.03 86 1008.9
20260506194524 15 278 3.2 22.5 0.00 0.00 0.00 83 1009.3
20260506193010 16 248 4.8 19.3 0.00 0.00 0.00 79 1009.1